• Join FlightAware (Why Join?)
  • Login
  • US Flag 
11:00PM EDT


 

Airport Tracker/Info


-or-


 

Live Flight TrackerFlight Track Log ✈ TAM3217 ✈ 24-Oct-2013 ✈ SBFZ / FOR - SBSV / SSA

Flight Track Log - Related Links

Times and Time Zones

All times are in EDT time to prevent confusion due to time zone crossing. See the TAM3217 flight status page for this flight to view local times or setup timezone preferences in your user account.

Time Position Orientation Groundspeed Altitude Reporting Facility
EDT Latitude Longitude Course Direction KTS MPH feet Rate Location/Type
12:09PM -3.7800 -38.5170 117° Southeast 148 170 800  Level FlightAware
12:10PM -3.7910 -38.4750 105° East 207 238 1,900 1,260 Climbing FlightAware
12:10PM -3.8070 -38.4420 116° Southeast 252 290 2,700 1,080 Climbing FlightAware
12:11PM -3.8500 -38.4330 168° South 257 296 3,300 2,820 Climbing FlightAware
12:12PM -3.9000 -38.4440 192° South 268 308 6,400 3,720 Climbing FlightAware
12:12PM -3.9550 -38.4490 185° South 277 319 8,200 2,340 Climbing FlightAware
12:13PM -4.0040 -38.4530 185° South 293 337 9,500 1,920 Climbing FlightAware
12:14PM -4.0530 -38.4580 186° South 308 354 10,600 1,800 Climbing FlightAware
12:14PM -4.1220 -38.4640 185° South 336 387 11,900 1,680 Climbing FlightAware
12:15PM -4.1790 -38.4690 185° South 352 405 12,900 2,280 Climbing FlightAware
12:16PM -4.2390 -38.4740 185° South 342 394 14,700 2,280 Climbing FlightAware
12:16PM -4.2890 -38.4790 186° South 353 406 15,500 1,200 Climbing FlightAware
12:17PM -4.3570 -38.4850 185° South 376 433 16,200 1,380 Climbing FlightAware
12:17PM -4.4270 -38.4920 186° South 384 442 17,400 1,620 Climbing FlightAware
12:18PM -4.4920 -38.4980 185° South 389 448 18,300 1,620 Climbing FlightAware
12:19PM -4.5690 -38.5040 184° South 391 450 19,600 1,620 Climbing FlightAware
12:19PM -4.6480 -38.5120 186° South 396 456 20,700 1,320 Climbing FlightAware
12:20PM -4.7090 -38.5170 185° South 406 467 21,300 1,200 Climbing FlightAware
12:21PM -4.7760 -38.5230 185° South 411 473 22,100 1,200 Climbing FlightAware
12:21PM -4.8680 -38.5210 179° South 420 483 23,000 1,080 Climbing FlightAware
12:22PM -4.9350 -38.5190 178° South 425 489 23,600 1,080 Climbing FlightAware
12:23PM -5.0110 -38.5170 178° South 432 497 24,300 1,020 Climbing FlightAware
12:23PM -5.0910 -38.5150 179° South 438 504 25,000 1,020 Climbing FlightAware
12:24PM -5.1660 -38.5140 179° South 442 509 25,600 960 Climbing FlightAware
12:24PM -5.2390 -38.5120 178° South 446 513 26,200 1,020 Climbing FlightAware
12:25PM -5.3240 -38.5100 179° South 452 520 26,900 1,020 Climbing FlightAware
12:26PM -5.4290 -38.5070 178° South 456 525 27,800 960 Climbing FlightAware
12:27PM -5.5190 -38.5050 179° South 460 529 28,400 780 Climbing FlightAware
12:27PM -5.6040 -38.5030 179° South 467 537 28,900 780 Climbing FlightAware
12:28PM -5.7060 -38.5000 178° South 471 542 29,600 780 Climbing FlightAware
12:29PM -5.8010 -38.4980 179° South 477 549 30,100 900 Climbing FlightAware
12:29PM -5.8940 -38.4960 179° South 475 547 30,900 1,020 Climbing FlightAware
12:30PM -5.9690 -38.4940 178° South 477 549 31,400 540 Climbing FlightAware
12:31PM -6.0420 -38.4920 178° South 477 549 31,600 1,320 Climbing FlightAware
12:31PM -6.0840 -38.4910 179° South 470 541 32,600 900 Climbing FlightAware
12:32PM -6.1780 -38.4880 178° South 470 541 32,600  Level FlightAware
12:32PM -6.2470 -38.4850 178° South 470 541 32,600 1,500 Level FlightAware
12:33PM -6.3330 -38.4850 180° South 473 544 34,200 1,500 Climbing FlightAware
12:33PM -6.4050 -38.4820 178° South 473 544 34,200 480 Level FlightAware
12:34PM -6.5340 -38.4800 179° South 482 555 35,000 660 Climbing FlightAware
12:35PM -6.6380 -38.4770 178° South 481 554 35,400 300 Climbing FlightAware
12:36PM -6.6830 -38.4750 177° South 481 554 35,400  Level FlightAware
12:36PM -6.7720 -38.4720 178° South 481 554 35,400  Level FlightAware
12:37PM -6.8400 -38.4700 178° South 481 554 35,400  Level FlightAware
12:38PM -6.9080 -38.4670 177° South 481 554 35,400  Level FlightAware
12:38PM -6.9500 -38.4660 179° South 481 554 35,400  Level FlightAware
12:39PM -7.0440 -38.4630 178° South 481 554 35,400  Level FlightAware
12:39PM -7.1120 -38.4600 177° South 481 554 35,400  Level FlightAware
12:40PM -7.2030 -38.4570 178° South 481 554 35,400  Level FlightAware
12:41PM -7.2490 -38.4560 179° South 481 554 35,400  Level FlightAware
12:41PM -7.3390 -38.4520 177° South 481 554 35,400  Level FlightAware
12:42PM -7.4070 -38.4500 178° South 481 554 35,400  Level FlightAware
12:43PM -7.4750 -38.4480 178° South 481 554 35,400  Level FlightAware
12:43PM -7.5230 -38.4460 178° South 481 554 35,400 360 Level FlightAware
12:44PM -7.8330 -38.4470 180° South 472 543 36,000 360 Climbing FlightAware
12:45PM -7.8770 -38.4460 179° South 472 543 36,000  Level FlightAware
12:45PM -7.9420 -38.4430 177° South 472 543 36,000  Level FlightAware
12:46PM -8.0310 -38.4400 178° South 472 543 36,000  Level FlightAware
12:47PM -8.1390 -38.4360 178° South 472 543 36,000  Level FlightAware
12:48PM -8.2090 -38.4340 178° South 472 543 36,000  Level FlightAware
12:48PM -8.2720 -38.4320 178° South 472 543 36,000  Level FlightAware
12:49PM -8.5100 -38.4310 180° South 458 527 36,000  Level FlightAware
12:51PM -8.6490 -38.4280 179° South 456 525 36,000  Level FlightAware
12:51PM -8.7280 -38.4260 179° South 455 524 36,000  Level FlightAware
12:52PM -8.7940 -38.4240 178° South 452 520 36,000  Level FlightAware
12:52PM -8.8660 -38.4230 179° South 449 517 36,000  Level FlightAware
12:53PM -8.9430 -38.4210 179° South 447 514 36,000  Level FlightAware
12:53PM -9.0040 -38.4190 178° South 445 512 36,000  Level FlightAware
12:54PM -9.1010 -38.4170 179° South 443 510 36,000  Level FlightAware
12:55PM -9.1950 -38.4150 179° South 442 509 36,000  Level FlightAware
12:56PM -9.2880 -38.4120 178° South 441 507 36,000  Level FlightAware
12:57PM -9.4010 -38.4090 178° South 438 504 36,000  Level FlightAware
12:57PM -9.4950 -38.4070 179° South 437 503 36,000  Level FlightAware
12:58PM -9.5890 -38.4050 179° South 437 503 36,000  Level FlightAware
12:58PM -9.6270 -38.4040 179° South 438 504 36,000  Level FlightAware
01:00PM -9.7780 -38.4000 179° South 439 505 36,000  Level FlightAware
01:00PM -9.8480 -38.3980 178° South 439 505 36,000  Level FlightAware
01:01PM -9.9290 -38.3960 179° South 438 504 36,000  Level FlightAware
01:01PM -10.0030 -38.3940 178° South 438 504 36,000  Level FlightAware
01:02PM -10.0690 -38.3930 179° South 439 505 36,000  Level FlightAware
01:03PM -10.1640 -38.3900 178° South 440 506 36,000  Level FlightAware
01:03PM -10.2450 -38.3880 179° South 442 509 36,000  Level FlightAware
01:04PM -10.3110 -38.3870 179° South 443 510 36,000  Level FlightAware
01:05PM -10.4020 -38.3840 178° South 444 511 36,000  Level FlightAware
01:05PM -10.4600 -38.3830 179° South 444 511 36,000  Level FlightAware
01:06PM -10.5330 -38.3810 178° South 444 511 36,000  Level FlightAware
01:06PM -10.6090 -38.3790 179° South 445 512 36,000  Level FlightAware
01:07PM -10.6780 -38.3780 179° South 444 511 36,000  Level FlightAware
01:08PM -10.8110 -38.3740 178° South 443 510 36,000  Level FlightAware
01:09PM -10.8790 -38.3720 178° South 443 510 36,000 -120 Level FlightAware
01:09PM -10.9490 -38.3710 179° South 442 509 35,900 -120 Descending FlightAware
01:10PM -10.9920 -38.3690 177° South 442 509 35,900  Level FlightAware
01:10PM -11.0740 -38.3660 178° South 442 509 35,900 -2,760 Level FlightAware
01:11PM -11.1730 -38.3650 179° South 431 496 31,700 -4,320 Descending FlightAware
01:12PM -11.2590 -38.3630 179° South 426 490 30,200 -2,400 Descending FlightAware
01:12PM -11.3250 -38.3610 178° South 422 486 29,000 -1,380 Descending FlightAware
01:13PM -11.3850 -38.3590 178° South 421 484 28,700 -300 Descending FlightAware
01:13PM -11.4450 -38.3570 178° South 421 484 28,700  Level FlightAware
01:14PM -11.4880 -38.3560 179° South 421 484 28,700  Level FlightAware
01:14PM -11.5480 -38.3530 177° South 421 484 28,700  Level FlightAware
01:15PM -11.6070 -38.3510 178° South 421 484 28,700  Level FlightAware
01:16PM -11.6670 -38.3490 178° South 421 484 28,700  Level FlightAware
01:16PM -11.7280 -38.3470 178° South 421 484 28,700  Level FlightAware
01:19PM -11.9709 -38.3437 179° South  Level Estimated
01:20PM -12.0797 -38.3423 179° South  Level Estimated
01:21PM -12.1884 -38.3408 179° South  Level Estimated
01:22PM -12.2972 -38.3393 179° South  Level Estimated
01:23PM -12.4060 -38.3379 179° South  Level Estimated
01:24PM -12.5148 -38.3364 179° South  Level Estimated
01:25PM -12.6235 -38.3349 179° South  Level Estimated
01:26PM -12.7323 -38.3335 179° South  Level Estimated
01:27PM -12.8411 -38.3320 179° South  Level Estimated
01:28PM -12.9110 -38.3310 179° South  Level Estimated
01:29PM -12.9110 -38.3310 224° Southwest  Level Estimated
01:30PM -12.9110 -38.3310 224° Southwest  Level Estimated
01:31PM -12.9110 -38.3310 224° Southwest  Level Estimated
01:32PM -12.9110 -38.3310 224° Southwest  Level Estimated
01:33PM -12.9110 -38.3310 224° Southwest  Level Estimated
01:34PM -12.9110 -38.3310 224° Southwest  Level Estimated
01:35PM -12.9110 -38.3310 224° Southwest  Level Estimated
01:36PM -12.9110 -38.3310 224° Southwest  Level Estimated
01:37PM -12.9110 -38.3310 224° Southwest  Level Estimated
01:38PM -12.9110 -38.3310 224° Southwest  Level Estimated
01:39PM -12.9110 -38.3310 224° Southwest  Level Estimated
01:40PM -12.9110 -38.3310 224° Southwest  Level Estimated
01:41PM -12.9110 -38.3310 224° Southwest  Level Estimated
01:42PM -12.9110 -38.3310 224° Southwest  Level Estimated
01:43PM -12.9110 -38.3310 224° Southwest  Level Estimated
01:44PM -12.9110 -38.3310 224° Southwest  Level Estimated
01:45PM -12.9110 -38.3310 224° Southwest  Level Estimated
01:46PM -12.9110 -38.3310 224° Southwest  Level Estimated
01:47PM -12.9110 -38.3310 224° Southwest  Level Estimated
01:48PM -12.9110 -38.3310 224° Southwest  Level Estimated
01:49PM -12.9110 -38.3310 224° Southwest  Level Estimated